AU224 Weather Reports


Display with metric or nautical units.
time (UTC)temp
F
wind
direction
speed
MPH
gust
MPH
rain 1hr
in
rain 24hr
in
rain mn
in
humidity
%
barometer
mb
20260506111543 63 66 2.0 9.0 0.00 0.00 0.00 55 1002.4
20260506110055 63 0 0.0 6.0 0.00 0.00 0.00 55 1002.2
20260506104551 64 0 0.0 7.0 0.00 0.00 0.00 56 1002.6
20260506103050 63 0 0.0 5.0 0.00 0.00 0.00 55 1002.8
20260506101553 62 0 2.0 5.0 0.00 0.00 0.00 58 1003.1
20260506100104 62 360 0.0 6.0 0.00 0.00 0.00 60 1003.3
20260506094550 61 0 0.0 4.0 0.00 0.00 0.00 59 1003.1
20260506093046 60 0 0.0 4.0 0.00 0.00 0.00 62 1003.1
20260506091542 59 0 0.0 1.0 0.00 0.00 0.00 65 1003.3
20260506090045 59 0 0.0 3.0 0.00 0.00 0.00 61 1003.4
20260506084607 58 0 0.0 3.0 0.00 0.00 0.00 63 1003.3
20260506083046 58 0 0.0 3.0 0.00 0.00 0.00 63 1003.4
20260506081553 57 0 0.0 0.0 0.00 0.00 0.00 66 1003.4
20260506073051 56 0 0.0 0.0 0.00 0.00 0.00 67 1003.4
20260506071551 55 0 0.0 0.0 0.00 0.00 0.00 72 1003.6
20260506061548 53 0 0.0 2.0 0.00 0.00 0.00 76 1003.6
20260506044637 45 0 0.0 0.0 0.00 0.00 0.00 82 1003.9
20260506043043 46 0 0.0 0.0 0.00 0.00 0.00 82 1004.0
20260506041556 46 0 0.0 0.0 0.00 0.00 0.00 82 1004.1
20260506040051 46 0 0.0 0.0 0.00 0.00 0.00 83 1004.2
20260506034621 46 0 0.0 0.0 0.00 0.00 0.00 83 1004.3
20260506033045 46 0 0.0 0.0 0.00 0.00 0.00 83 1004.6
20260506031546 46 0 0.0 0.0 0.00 0.00 0.00 82 1004.6
20260506030049 45 0 0.0 0.0 0.00 0.00 0.00 82 1004.8
20260506024544 45 0 0.0 0.0 0.00 0.00 0.00 81 1004.9
20260506023108 45 0 0.0 0.0 0.00 0.00 0.00 80 1005.0
20260506021547 45 0 0.0 0.0 0.00 0.00 0.00 80 1005.1
20260506020051 46 0 0.0 0.0 0.00 0.00 0.00 79 1005.0
20260506014550 46 0 0.0 0.0 0.00 0.00 0.00 78 1005.2
20260506013049 46 0 0.0 0.0 0.00 0.00 0.00 78 1005.0
20260506011601 46 0 0.0 0.0 0.00 0.00 0.00 78 1005.2
20260506010059 47 0 0.0 0.0 0.00 0.00 0.00 77 1005.4
20260506004600 48 0 0.0 0.0 0.00 0.00 0.00 77 1005.3
20260506003103 48 0 0.0 0.0 0.00 0.00 0.00 77 1005.3
20260506001554 49 0 0.0 0.0 0.00 0.00 0.00 77 1005.4
20260506000051 49 0 0.0 0.0 0.00 0.00 0.00 77 1005.7
20260505234613 49 0 0.0 0.0 0.00 0.00 0.00 76 1005.8
20260505233042 50 0 0.0 0.0 0.00 0.00 0.00 76 1005.9
20260505231549 50 0 0.0 0.0 0.00 0.00 0.00 77 1005.9
20260505230050 51 0 0.0 0.0 0.00 0.00 0.00 78 1005.8
20260505224557 51 0 0.0 0.0 0.00 0.00 0.00 78 1006.0
20260505223051 51 0 0.0 4.0 0.00 0.00 0.00 78 1006.1
20260505221549 51 0 0.0 6.0 0.00 0.00 0.00 78 1006.0
20260505214554 52 187 1.0 5.0 0.00 0.00 0.00 77 1006.0
20260505213101 52 180 0.0 5.0 0.00 0.00 0.00 76 1006.1
20260505211554 53 0 0.0 7.0 0.00 0.00 0.00 75 1005.7
20260505210049 54 0 0.0 11.0 0.00 0.00 0.00 74 1005.7
20260505204548 55 0 2.0 11.0 0.00 0.00 0.00 74 1005.9
20260505203043 55 360 7.0 17.0 0.00 0.00 0.00 71 1005.9
20260505201545 56 184 4.0 14.0 0.00 0.00 0.00 71 1006.0
20260505200051 56 295 2.0 16.0 0.00 0.00 0.00 75 1006.0
20260505194549 56 0 2.0 10.0 0.00 0.00 0.00 74 1005.6
20260505193052 56 0 0.0 4.0 0.00 0.00 0.00 74 1005.3
20260505191556 56 0 0.0 0.0 0.00 0.00 0.00 73 1004.9
20260505190048 57 0 0.0 3.0 0.00 0.00 0.00 73 1004.8
20260505184543 57 0 0.0 4.0 0.00 0.00 0.00 73 1004.8
20260505183039 57 274 3.0 6.0 0.00 0.00 0.00 71 1004.6
20260505181539 58 360 3.0 6.0 0.00 0.00 0.00 71 1004.3
20260505180048 58 0 0.0 4.0 0.00 0.00 0.00 71 1004.0
20260505174605 58 0 0.0 0.0 0.00 0.00 0.00 71 1003.8
20260505173043 58 0 0.0 0.0 0.00 0.00 0.00 70 1003.5
20260505171543 59 0 1.0 8.0 0.00 0.00 0.00 67 1003.4
20260505170120 60 325 1.0 8.0 0.00 0.00 0.00 66 1003.7
20260505164550 60 287 1.0 6.0 0.00 0.00 0.00 64 1003.9
20260505163046 60 275 2.0 9.0 0.00 0.00 0.00 63 1004.0
20260505161553 60 291 5.0 12.0 0.00 0.00 0.00 62 1004.2
20260505153056 63 268 4.0 11.0 0.00 0.00 0.00 56 1003.8
20260505151554 63 281 5.0 11.0 0.00 0.00 0.00 55 1003.9
20260505124550 65 270 12.0 19.0 0.00 0.00 0.00 58 1003.8
20260505123106 64 271 7.0 15.0 0.00 0.00 0.00 55 1003.8
20260505121546 65 276 7.0 13.0 0.00 0.00 0.00 57 1004.2
20260505120052 67 287 6.0 13.0 0.00 0.00 0.00 54 1004.2
20260505114612 68 292 1.0 7.0 0.00 0.00 0.00 52 1004.2
20260505113048 69 0 4.0 10.0 0.00 0.00 0.00 50 1004.1